Location: Unspecified
(43.4354°N, 0.0000°E)
Time: 15:47:01
(UTC+00:00)

Vanguard 2 Rocket - Pass Details

Date: 22 June 2019
Orbit: 554 x 3326 km, 32.9° (Epoch: 21 July)

Event Time Altitude Azimuth Distance (km) Brightness Sun altitude
Rises 22:39:11 0° 247° (WSW) 4,192 10.3 -20.5°
Reaches altitude 10° 22:41:38 10° 241° (WSW) 3,508 9.8 -20.6°
Maximum altitude 22:50:41 51° 169° (S) 2,465 8.6 -21.1°
Drops below altitude 10° 23:06:03 10° 101° (E) 5,760 10.7 -21.9°
Sets 23:11:22 0° 98° (E) 7,052 11.2 -22.1°
